sat.trackr.live / text

‹ back to catalog

INTELSAT 30 (IS-30)

NORAD 40271 · 2014-062A

PAYLOAD ACTIVE UNKNOWN

§ Identity

Operator
Country
ITSO
Launch date
2014-10-16
Launch site
FRGUI
Launch vehicle
Mass (kg)
RCS (m²)
316.36

Purposes: comms

External: N2YO · Heavens-Above · Gunter

§ Orbital elements

Epoch: 2026-05-25T03:26:38.736096Z

Period
1,436.08 min
Inclination
0.0258°
Eccentricity
0.0001033
Mean motion
1.00272991 rev/d
Perigee alt
35,781.9 km
Apogee alt
35,790.6 km
Semi-major
42,164.4 km
B*
0.0000e+0
RAAN
42.8467°
Arg perigee
340.4720°
Mean anomaly
176.0285°
Rev number
656

§ Raw data

INTELSAT 30 (IS-30)1 40271U 14062A   26145.14350389 -.00000153  00000+0  00000+0 0  99962 40271   0.0258  42.8467 0001033 340.4720 176.0285  1.00272991  6566

JSON: /api/v1/satellites/40271 · /tle

For live sub-satellite position, see the globe view (requires WebGL).

§ Visibility from observer

Set your observer location to see the next 7 days of passes ≥ 10°. The values pass through the URL so the page stays shareable.

No JS? Fill the form by hand. The geolocation button needs JavaScript.